This demonstration page uses our WeatherBlox Daily Observations layout. Learn more.

Left ArrowRight Arrow

39.01783, -85.05884

Hourly Observations for December 7, 2017

Temp ( °F °C ) Dew Point ( °F °C ) Humidity (%) Winds ( mph kmh ) Pressure ( in mb ) Visibility ( mi km ) Precip ( " mm )
12:52 am 00:52 Mostly Clear 28 -2.2 24 -4.4 85 85 S 7 11 30.11 1020 10 16 0.00 0.00
1:52 am 01:52 Cloudy 33 0.6 26 -3.3 75 75 SSW 5 7 30.09 1019 10 16 0.00 0.00
2:52 am 02:52 Mostly Clear 30 -1.1 25 -3.9 82 82 SSW 7 11 30.11 1020 10 16 0.00 0.00
3:52 am 03:52 Clear 30 -1.1 26 -3.3 85 85 SSW 6 9 30.10 1019 10 16 0.00 0.00
4:52 am 04:52 Clear 29 -1.7 26 -3.3 89 89 SSW 6 9 30.09 1019 10 16 0.00 0.00
5:52 am 05:52 Clear 30 -1.1 26 -3.3 85 85 SW 5 7 30.09 1019 10 16 0.00 0.00
6:52 am 06:52 Cloudy 31 -0.6 27 -2.8 85 85 WSW 5 7 30.11 1020 10 16 0.00 0.00
7:52 am 07:52 Cloudy 31 -0.6 28 -2.2 89 89 W 8 13 30.12 1020 10 16 0.00 0.00
8:52 am 08:52 Cloudy 31 -0.6 28 -2.2 89 89 W 8 13 30.13 1020 10 16 0.00 0.00
9:26 am 09:26 Cloudy with Light Snow 32 0 28 -2.2 85 85 W 8 13 30.18 1022 8 13 0.00 0.03
9:52 am 09:52 Cloudy 33 0.6 27 -2.8 78 78 W 13 20 30.15 1021 10 16 0.00 0.03
10:41 am 10:41 Mostly Cloudy 34 1.1 24 -4.4 67 67 WNW 14 22 30.21 1023 10 16 0.00 0.00
10:52 am 10:52 Mostly Cloudy 33 0.6 23 -5 66 66 WNW 14 22 30.16 1021 10 16 0.00 0.00
11:52 am 11:52 Mostly Cloudy 32 0 22 -5.6 66 66 WNW 16 26 30.16 1022 10 16 0.00 0.00
12:29 pm 12:29 Mostly Cloudy 32 0 21 -6.1 64 64 WNW 18 30 30.21 1023 10 16 0.00 0.00
12:52 pm 12:52 Mostly Cloudy 31 -0.6 20 -6.7 64 64 WNW 15 24 30.16 1021 10 16 0.00 0.00
1:52 pm 13:52 Mostly Cloudy 30 -1.1 20 -6.7 66 66 W 17 28 30.16 1021 10 16 0.00 0.00
2:52 pm 14:52 Cloudy 29 -1.7 19 -7.2 66 66 WNW 13 20 30.16 1022 10 16 0.00 0.00
3:52 pm 15:52 Cloudy 29 -1.7 20 -6.7 69 69 W 15 24 30.17 1022 10 16 0.00 0.00
4:52 pm 16:52 Cloudy 27 -2.8 17 -8.3 66 66 W 10 17 30.20 1023 10 16 0.00 0.00
5:52 pm 17:52 Cloudy with Light Snow 27 -2.8 18 -7.8 69 69 WNW 12 19 30.21 1023 9 14 0.00 0.03
6:52 pm 18:52 Cloudy 27 -2.8 18 -7.8 69 69 WNW 10 17 30.22 1023 10 16 0.00 0.03
7:52 pm 19:52 Mostly Cloudy 26 -3.3 17 -8.3 69 69 W 12 19 30.22 1023 10 16 0.00 0.00
8:29 pm 20:29 Partly Cloudy 25 -3.9 17 -8.3 72 72 W 6 9 30.24 1024 10 16 0.00 0.00
8:52 pm 20:52 Partly Cloudy 24 -4.4 17 -8.3 75 75 WNW 6 9 30.21 1023 10 16 0.00 0.00
9:52 pm 21:52 Mostly Clear 22 -5.6 16 -8.9 78 78 W 8 13 30.20 1023 10 16 0.00 0.00
10:52 pm 22:52 Clear 22 -5.6 16 -8.9 78 78 SW 6 9 30.21 1023 10 16 0.00 0.00
11:52 pm 23:52 Mostly Clear 22 -5.6 16 -8.9 78 78 SW 6 9 30.20 1023 10 16 0.00 0.00

Powered by AerisWeather